Location: Tryon
(41.5533°N, 100.9574°W)
Time: 23:30:58
(UTC-05:00)

Tiangong 2 - Pass Details

Date: 30 March 2019
Orbit: 378 x 389 km, 42.8° (Epoch: 22 April)

Event Time Altitude Azimuth Distance (km) Brightness Sun altitude
Rises 20:51:01 0° 215° (SW) 2,231 5.2 -9.0°
Reaches altitude 10° 20:53:26 10° 197° (SSW) 1,381 3.9 -9.4°
Maximum altitude 20:55:44 19° 149° (SSE) 968 2.7 -9.8°
Enters shadow 20:57:04 15° 116° (ESE) 1,121 2.8 -10.1°
